Flag for Germany Weather past 2 weeks in Bad Oldesloe, Schleswig-Holstein, Germany

Now
64 °F

Scattered clouds.


Feels Like: 64 °F
Forecast: 57 / 75 °F
Wind: 3 mph from West

Location: Luebeck-Blankensee

Current Time: Aug 4, 2015 at 10:58:15 PM

Latest Report: Aug 4, 2015 at 9:50 PM


Visibility: N/A

Pressure: 29.95 "Hg

Humidity: 100%

Dew point: 64 °F

Location of Bad OldesloeLocation

Historic Weather in Bad Oldesloe — Graph

°F

Bad Oldesloe temperature yesterday

Maximum temperature yesterday: 86 °F (at 4:20 PM)
Minimum temperature yesterday: 52 °F (at 6:50 AM)
Average temperature yesterday: 77 °F

Past Weeks' High & Low Weather Summary

 TemperatureHumidityPressure
High90 °F (Aug 4, 1:20 PM)100% (Jul 25, 6:50 AM)30.15 "Hg (Jul 25, 6:50 AM)
Low43 °F (Aug 1, 6:50 AM)33% (Aug 2, 3:50 PM)29.42 "Hg (Jul 25, 3:20 PM)
Average66 °F68%29.84 "Hg
* Reported Jul 20 9:20 PM — Aug 4 9:20 PM, Bad Oldesloe, Weather by CustomWeather, © 2015

Note: Actual official high and low records may vary slightly from our data, if they occured in-between our weather recording intervals... More about our weather records

Advertising

Bad Oldesloe weather history for previous 24 hours

 ConditionsComfort  
Time TempWeatherWind HumidityBarometerVisibility
9:20 PM
Tue, Aug 4
66 °FScattered clouds.2 mph94%29.92 "HgN/A
8:50 PM66 °FLight rain. Broken clouds.5 mph94%29.92 "HgN/A
8:20 PM66 °FScattered showers. Scattered clouds.5 mph94%29.95 "HgN/A
7:50 PM66 °FSprinkles. Partly sunny.5 mph94%29.92 "Hg4 mi
7:20 PM68 °FStrong thunderstorms. Partly sunny.12 mph94%29.95 "Hg2 mi
6:52 PM68 °FThunderstorms. Scattered clouds.10 mph88%29.92 "Hg3 mi
6:20 PM72 °FScattered clouds.5 mph83%29.86 "HgN/A
5:50 PM73 °FScattered clouds.3 mph78%29.83 "HgN/A
5:20 PM72 °FPartly sunny.7 mph73%29.83 "HgN/A
4:50 PM75 °FThunderstorms. Partly sunny.21 mph61%29.83 "HgN/A
4:20 PM88 °FRain showers. Passing clouds.6 mph38%29.80 "HgN/A
3:50 PM90 °FPassing clouds.7 mph36%29.80 "HgN/A
3:20 PM90 °FPassing clouds.9 mph36%29.80 "HgN/A
2:50 PM90 °FPassing clouds.9 mph38%29.83 "HgN/A
2:20 PM88 °FPassing clouds.10 mph38%29.83 "HgN/A
1:50 PM90 °FPassing clouds.5 mph38%29.83 "HgN/A
1:20 PM90 °FPassing clouds.8 mph36%29.83 "HgN/A
12:50 PM88 °FPassing clouds.9 mph40%29.86 "HgN/A
12:20 PM86 °FPassing clouds.8 mph43%29.86 "HgN/A
11:50 AM86 °FPassing clouds.9 mph43%29.86 "HgN/A
11:20 AM84 °FPassing clouds.7 mph48%29.86 "HgN/A
10:50 AM82 °FPassing clouds.9 mph48%29.89 "HgN/A
10:20 AM81 °FPassing clouds.8 mph51%29.89 "HgN/A
9:50 AM79 °FPassing clouds.8 mph54%29.89 "HgN/A
9:20 AM77 °FPassing clouds.7 mph57%29.89 "HgN/A
8:50 AM75 °FPassing clouds.7 mph61%29.89 "HgN/A
8:20 AM73 °FSunny.7 mph61%29.89 "Hg10 mi
7:50 AM72 °FPassing clouds.7 mph61%29.92 "HgN/A
7:20 AM70 °FPassing clouds.8 mph64%29.92 "HgN/A
6:50 AM70 °FSunny.7 mph64%29.92 "Hg10 mi
Weather by CustomWeather, © 2015

See weather overviewHow to use our weather pages